www.pogodaiklimat.ru

Погода и климат >> Архив погоды >> Россия >> Крым >> Феодосия


АРХИВ ПОГОДЫ в Феодосии

Время (UTC), дата Ветер
(напр.,м/с)
 
Видим.   Явления Облачность Т
(С)
Тd
(С)
f
(%)
Тe
(С)
Тes
(С)
Комфортность P
(гПа)
Po
(гПа)
Тmin
(С)
Tmax
(С)
R
(мм)
R24
(мм)
S
(см)
03 19.09 З 2 10 км ясно +21.6 +13.5 60 +24 +24 комфорт 1013.7 1010.7 +21.6
06 19.09 Ю 1 10 км ясно +26.2 +16.1 54 +30 +34 душно 1015.0 1012.0 +21.6
09 19.09 В 1 10 км ясно +28.7 +20.9 63 +36 +48 очень
душно
1015.0 1012.0
12 19.09 В 2 10 км ясно +28.0 +19.5 60 +34 +41 очень
душно
1013.7 1010.7
15 19.09 В 2 10 км ясно +25.6 +19.5 69 +31 +31 очень
душно
1013.7 1010.7
18 19.09 З 2 10 км ясно +22.9 +20.2 85 +30 +30 очень
душно
1013.7 1010.7 +29.5
21 19.09 З 1 10 км 4 балла +21.8 +19.9 89 +27 +27 душно 1013.7 1010.7
00 20.09 ЮЗ 1 10 км ясно +21.1 +19.0 88 +25 +25 комфорт 1012.3 1009.3
03 20.09 ЮВ 1 10 км 7 баллов +21.6 +19.2 86 +27 +27 душно 1012.3 1009.3 +21.0
06 20.09 В 1 10 км 6 баллов +26.4 +24.1 87 +37 +38 очень
душно
1011.0 1008.0 +21.0
09 20.09 В 3 4000 м дымка 2 балла +28.6 +26.2 87 +43 +50 опасность
перегрева
1012.2 1009.3
12 20.09 В 2 4000 м дымка 7 баллов +28.3 +26.5 90 +44 +46 опасность
перегрева
1012.2 1009.3
15 20.09 ЮВ 2 4000 м дымка 4 балла +25.6 +23.5 88 +35 +35 очень
душно
1012.3 1009.3
18 20.09 Ю 1 10 км ясно +23.6 +22.0 91 +30 +30 очень
душно
1012.3 1009.3 +30.8
21 20.09 ЮВ 2 10 км ясно +25.1 +21.9 82 +26 +26 жарко 1011.0 1008.0
00 21.09 ЮВ 3 10 км ясно +22.7 +21.3 92 +30 +30 очень
душно
1011.0 1008.0
03 21.09 СЗ 1 10 км 5 баллов +19.9 +18.6 92 +24 +24 комфорт 1011.0 1008.0 +19.9
06 21.09 ЮВ 2 10 км ясно +26.2 +22.5 80 +34 +38 очень
душно
1009.7 1006.7 +19.4
09 21.09 ЮВ 3 10 км ясно +29.4 +18.2 51 +34 +43 очень
душно
1010.9 1008.0
12 21.09 В 3 4000 м дымка 7 баллов +26.9 +24.4 86 +38 +39 очень
душно
1009.6 1006.7
15 21.09 В 1 10 км ясно +26.2 +19.3 66 +32 +32 очень
душно
1008.3 1005.3
18 21.09 В 1 10 км ясно +22.6 +19.6 83 +29 +29 очень
душно
1008.3 1005.3 +30.5
21 21.09 З 2 10 км ясно +23.0 +20.9 88 +30 +30 очень
душно
1008.3 1005.3
00 22.09 СЗ 3 10 км ясно +22.2 +19.9 87 +28 +28 душно 1008.3 1005.3
03 22.09 З 1 4000 м дымка ясно +20.7 +19.4 92 +26 +26 душно 1005.7 1002.7 +20.7
06 22.09 З 3 10 км 9 баллов +24.2 +20.3 79 +30 +30 очень
душно
1007.0 1004.0 +20.6
09 22.09 З 4
{10}
9 баллов +26.4 +17.5 58 +28 +28 жарко 1008.1 1004.0
12 22.09 З 4
{11}
10 км 7 баллов +26.7 +13.8 45 +29 +30 жарко 1009.7 1006.7
15 22.09 З 3
{10}
10 км 7 баллов +24.3 +12.3 47 +26 +26 жарко 1012.3 1009.3
18 22.09 З 2 10 км ясно +20.9 +14.5 67 +25 +25 комфорт 1015.0 1012.0 +27.4
21 22.09 З 1 10 км 5 баллов +18.4 +13.5 73 +20 +20 тепло 1016.4 1013.3
00 23.09 З 1 10 км 5 баллов +16.9 +13.4 80 +18 +18 тепло 1017.8 1014.7
03 23.09 З 2 10 км слабый ливневой дождь 10 баллов +16.6 +15.6 94 +17 +17 по сезону 1017.8 1014.7 +16.4 0.6
06 23.09 ЮЗ 2 4000 м слабый ливневой дождь 10 баллов +16.0 +15.5 97 +16 +16 по сезону 1017.8 1014.7 +16.0 14
09 23.09 З 1 4000 м слабый ливневой дождь 10 баллов +16.2 +15.7 97 +17 +17 прохладно 1017.8 1014.7
12 23.09 СЗ 2 10 км 7 баллов +18.1 +16.3 89 +19 +21 прохладно 1017.8 1014.7
15 23.09 ЮЗ 1 10 км 4 балла +18.3 +15.7 85 +20 +20 тепло 1019.1 1016.0 19
18 23.09 З 1 10 км ясно +15.9 +14.8 93 +17 +17 по сезону 1019.1 1016.0 +18.8 5
21 23.09 З 2 10 км ясно +15.7 +14.2 91 +16 +16 по сезону 1019.1 1016.0
00 24.09 З 1 10 км ясно +14.7 +13.7 94 +15 +15 по сезону 1019.1 1016.0
03 24.09 З 1 10 км 4 балла +13.8 +12.7 93 +14 +14 по сезону 1021.8 1018.7 +13.6
06 24.09 СЗ 1 20 км 2 балла +21.4 +13.8 62 +24 +27 комфорт 1021.8 1018.7 +13.3
09 24.09 В 2 20 км 4 балла +23.0 +12.9 53 +26 +32 жарко 1021.7 1018.7
12 24.09 Ю 2 20 км 2 балла +23.5 +12.2 49 +25 +31 комфорт 1023.0 1020.0
15 24.09 ЮВ 1 20 км 2 балла +21.6 +13.0 58 +24 +24 комфорт 1023.1 1020.0
18 24.09 З 1 10 км ясно +18.4 +15.3 82 +20 +20 тепло 1024.4 1021.3 +24.3
21 24.09 З 1 10 км ясно +16.6 +14.8 89 +17 +17 тепло 1024.4 1021.3
00 25.09 З 1 10 км ясно +16.2 +13.9 86 +17 +17 тепло 1023.1 1020.0
03 25.09 З 2 10 км ясно +17.2 +14.5 84 +18 +18 тепло 1023.1 1020.0 +16.2
06 25.09 СЗ 3 10 км 5 баллов +21.8 +17.8 78 +26 +28 душно 1023.1 1020.0 +16.2
09 25.09 СВ 4 10 км ясно +25.4 +12.2 44 +27 +34 жарко 1021.7 1018.7
12 25.09 В 4 10 км ясно +24.2 +13.7 52 +26 +31 жарко 1021.7 1018.7
15 25.09 В 4 4000 м дымка 9 баллов +24.2 +16.7 63 +28 +28 душно 1021.7 1018.7
18 25.09 СВ 5
{11}
10 км ясно +22.6 +11.9 51 +25 +25 комфорт 1020.3 1017.3 +25.8
21 25.09 СВ 6
{13}
10 км ясно +20.7 +9.3 48 +22 +22 комфорт 1020.4 1017.3
00 26.09 СВ 6
{13}
10 км ясно +18.2 +9.0 55 +18 +18 тепло 1021.8 1018.7

 

Местоположение метеостанции Феодосия (Крым, Россия): широта 45.03 долгота 35.38 высота над уровнем моря 26 м.

В архиве по умолчанию представлена погода в Феодосии за последнюю неделю. Архивные данные за месяц целиком и за предыдущие месяцы, начиная с января 2011 года, Вы можете получить, выбрав интересующий диапазон дат из раскрывающегося списка и нажав кнопку "Ввод!".

Внимание! Время в таблицах - всемирное. Для получения местного времени необходимо прибавить поправку, которая в Феодосии равна 3 ч.

Смотрите также архив погоды в соседних городах и на ближайших метеорологических станциях:

Погода на Мысовом (Крым, Россия) (58 км)
Погода в Белогорске (Крым, Россия) (61 км)
Погода в Нижнегорском (Крым, Россия) (69 км)
Погода в Стрелковом (Херсонская область, Украина) (87 км)
Погода в Алуште (Крым, Россия) (87 км)
Погода в Керчи (Крым, Россия) (91 км)
Погода в Никитском саду (Крым, Россия) (106 км)
Погода в Тамани (Краснодарский край, Россия) (107 км)
Погода в Джанкое (Крым, Россия) (108 км)
Погода в Клепинино (Крым, Россия) (109 км)

Пояснения к столбцам:

Ветер - указаны скорость ветра в м/с - средняя за 10 мин, порывы в срок и между сроками (в фигурных скобках) и направление, откуда дует ветер: С - северный, СВ - северо-восточный, В - восточный, ЮВ - юго-восточный, Ю - южный, ЮЗ - юго-западный, З - западный, СЗ - северо-западный.
Видимость - горизонтальная дальность видимости в метрах или километрах. При видимости от 1 до 10 км при отсутствии осадков обычно наблюдается дымка, при ухудшении видимости до 1 км и менее - туман. В сухую погоду видимость может ухудшаться дымом, пылью или мглою.
Явления - указаны атмосферные явления, наблюдавшиеся в срок или в последний час перед сроком; фигурными скобками обозначены явления, наблюдавшиеся между сроками (за 1-3 часа до срока); квадратными скобками обозначены град или гололедные отложения с указанием их диаметра в мм.
Облачность - указаны через наклонную черту общая и нижняя облачность в баллах и высота нижней границы облаков в метрах; квадратными скобками обозначены формы облаков: Ci - перистые, Cs - перисто-слоистые, Cc - перисто-кучевые, Ac - высококучевые, As - высокослоистые, Sc - слоисто-кучевые, Ns - слоисто-дождевые, Cu - кучевые, Cb - кучево-дождевые. Подробнее классификацию облаков см. в Атласе облаков (PDF).
T - Температура воздуха - температура, измеренная на высоте 2 м над землей.
Td - Температура точки росы - температура, при понижении до которой содержащийся в воздухе водяной пар достигнет насыщения.
f - Относительная влажность воздуха - влажноcть воздуха, измеренная на высоте 2 м над землей.
Te - Эффективная температура - температура, которую ощущает одетый по сезону человек в тени. Характеристика душности погоды. При расчете учитывается влияние влажности воздуха и скорости ветра на теплоощущения человека.
Tes - Эффективная температура на солнце - температура, которую ощущает человек, с поправкой на солнечный нагрев. Характеристика знойности погоды. Зависит от высоты солнца над горизонтом, облачности и скорости ветра. Ночью, в пасмурную погоду, а также при ветре 12 м/с и более поправка равна нулю.
P - Атмосферное давление - приведенное к уровню моря атмосферное давление.
Po - Атмосферное давление - измеренное на уровне метеостанции атмосферное давление.
Tmin - Минимальная температура - минимум температуры воздуха на высоте 2 м над землей.
Tmax - Максимальная температура - максимум температуры воздуха на высоте 2 м над землей.
R - Количество осадков - Количество выпавших осадков за период времени, мм. При наведении курсора мыши на число - период времени, за который выпало указанное количество осадков.
R24 - Количество осадков - Количество выпавших осадков за 24 часа, мм.
S - Снежный покров - Высота снежного покрова, см. При наведении курсора мыши на число - состояние снежного покрова и степень покрытия местности в баллах.